Location: Cormont
(50.5693°N, 1.7416°E)
Time: 12:54:53
(UTC+00:00)

STARLINK-33 - Pass Details

Date: 21 October 2019
Orbit: 548 x 551 km, 53.0° (Epoch: 11 November)

Event Time Altitude Azimuth Distance (km) Brightness Sun altitude
Rises 18:28:52 0° 279° (W) 2,717 9.0 -16.4°
Reaches altitude 10° 18:31:08 10° 282° (WNW) 1,824 7.6 -16.8°
Maximum altitude 18:35:14 61° 4° (N) 625 3.8 -17.4°
Enters shadow 18:36:40 37° 69° (ENE) 865 4.1 -17.7°
